Weather History for KDFI - November, 2013

Change the Weather History Date:

Tuesday, November 5, 2013

  Actual Average Record
Temperature  
Mean Temperature 50 °F -  
Max Temperature 57 °F 50 °F 75 °F (1964)
Min Temperature 44 °F 34 °F 14 °F (1991)
Degree Days  
Heating Degree Days 14    
Moisture  
Dew Point 43 °F    
Average Humidity 71    
Maximum Humidity 80    
Minimum Humidity 59    
Precipitation  
Precipitation 0.00 in - - ()
Sea Level Pressure  
Sea Level Pressure 30.31 in    
Wind  
Wind Speed 6 mph (South)    
Max Wind Speed 12 mph    
Max Gust Speed -    
Visibility 10 miles    
Events Rain    
Averages and records for this station are not official NWS values.
T = Trace of Precipitation, MM = Missing Value Source: NWS Daily Summary

Daily Weather History Graph

Daily Weather History Graph

Search for Another Location

Airport or City:

Trip Planner

Search our weather history database for the weather conditions in past years. The results will help you decide how hot, cold, wet, or windy it might be!

Date:

Astronomy

Nov. 05, 2013 Rise Set
Actual Time 7:14 AM EST 5:27 PM EST
Civil Twilight 6:45 AM EST 5:56 PM EST
Nautical Twilight 6:12 AM EST 6:29 PM EST
Astronomical Twilight 5:40 AM EST 7:01 PM EST
Moon 9:29 AM EST (11/5) 7:27 PM EST (11/5)
Length of Visible Light 11h 11m
Length of Day
10h 13m
Waxing Crescent, 6% of the Moon is Illuminated
Nov 5
Waxing Crescent
Nov 10
First Quarter
Nov 17
Full
Nov 25
Last Quarter
Dec 2
New

Hourly Weather History & Observations

Time (EST) Temp. Windchill Dew Point Humidity Pressure Visibility Wind Dir Wind Speed Gust Speed Precip Events Conditions
12:53 AM 48.0 °F - 39.0 °F 71% 30.33 in 10.0 mi South 5.8 mph - N/A   Clear
1:53 AM 46.9 °F - 39.0 °F 74% 30.33 in 10.0 mi South 5.8 mph - N/A   Clear
2:53 AM 45.0 °F 43.5 °F 37.9 °F 76% 30.33 in 10.0 mi South 3.5 mph - N/A   Clear
3:53 AM 44.1 °F 41.5 °F 37.9 °F 79% 30.34 in 10.0 mi South 4.6 mph - N/A   Clear
4:53 AM 45.0 °F 43.5 °F 39.0 °F 80% 30.34 in 10.0 mi South 3.5 mph - N/A   Mostly Cloudy
5:53 AM 46.9 °F - 39.9 °F 77% 30.34 in 10.0 mi South 6.9 mph - N/A   Overcast
6:53 AM 46.9 °F - 39.0 °F 74% 30.35 in 10.0 mi South 3.5 mph - N/A   Mostly Cloudy
7:53 AM 48.0 °F - 39.9 °F 74% 30.36 in 10.0 mi South 5.8 mph - N/A   Partly Cloudy
8:53 AM 50.0 °F - 41.0 °F 71% 30.37 in 10.0 mi South 5.8 mph - N/A   Overcast
9:53 AM 52.0 °F - 43.0 °F 71% 30.38 in 10.0 mi SSW 6.9 mph - N/A   Overcast
10:53 AM 53.1 °F - 45.0 °F 74% 30.37 in 10.0 mi SSW 4.6 mph - 0.00 in Rain Light Rain
11:53 AM 54.0 °F - 46.9 °F 77% 30.37 in 10.0 mi SSW 10.4 mph - 0.00 in   Overcast
12:53 PM 54.0 °F - 46.9 °F 77% 30.36 in 10.0 mi SSW 8.1 mph - N/A   Overcast
1:16 PM 55.4 °F - 46.4 °F 72% 30.34 in 10.0 mi SSW 9.2 mph - N/A   Overcast
1:23 PM 55.4 °F - 48.2 °F 77% 30.33 in 10.0 mi South 11.5 mph - N/A   Overcast
1:53 PM 55.0 °F - 46.9 °F 74% 30.33 in 10.0 mi South 5.8 mph - N/A   Overcast
2:53 PM 55.9 °F - 46.9 °F 72% 30.32 in 10.0 mi South 5.8 mph - N/A   Partly Cloudy
3:53 PM 57.0 °F - 45.0 °F 64% 30.30 in 10.0 mi South 4.6 mph - N/A   Clear
4:53 PM 57.0 °F - 45.0 °F 64% 30.29 in 10.0 mi South 3.5 mph - N/A   Scattered Clouds
5:53 PM 55.9 °F - 43.0 °F 62% 30.29 in 10.0 mi SSE 4.6 mph - N/A   Partly Cloudy
6:53 PM 55.0 °F - 44.1 °F 67% 30.28 in 10.0 mi SSE 6.9 mph - N/A   Mostly Cloudy
7:53 PM 54.0 °F - 43.0 °F 66% 30.26 in 10.0 mi SSE 5.8 mph - N/A   Scattered Clouds
8:53 PM 55.0 °F - 42.1 °F 62% 30.25 in 10.0 mi South 6.9 mph - N/A   Overcast
9:53 PM 55.0 °F - 42.1 °F 62% 30.23 in 10.0 mi SSE 5.8 mph - N/A   Overcast
10:53 PM 55.0 °F - 41.0 °F 59% 30.21 in 10.0 mi South 9.2 mph - N/A   Mostly Cloudy
11:53 PM 54.0 °F - 39.9 °F 59% 30.18 in 10.0 mi South 9.2 mph - N/A   Mostly Cloudy